Nogales, AZ

6:34 AM MST on October 18, 2019 (GMT -0700)
Nogales International

Weather History for KOLS - September, 2019

Change the Weather History Date:

Friday, September 20, 2019

  Actual Average (KFHU) Record (KFHU)
Temperature  
Mean Temperature 72 °F -  
Max Temperature 88 °F 84 °F 93 °F (1982)
Min Temperature 57 °F 64 °F 48 °F (1985)
Cooling Degree Days 8    
Growing Degree Days 22 (Base 50)    
Moisture  
Dew Point 49 °F    
Average Humidity 44    
Maximum Humidity 65    
Minimum Humidity 25    
Precipitation  
Precipitation 0.00 in - - ()
Sea Level Pressure  
Sea Level Pressure 29.79 in    
Wind  
Wind Speed 5 mph ()    
Max Wind Speed 15 mph    
Max Gust Speed 25 mph    
Visibility 10.0 miles    
Events      
Averages and records for this station are not official NWS values.
T = Trace of Precipitation, MM = Missing Value Source: Averaged Metar Reports

Daily Weather History Graph

Daily Weather History Graph

Search for Another Location

Airport or City:

Astronomy

Sep. 20, 2019 Rise Set
Actual Time 6:10 AM MST 6:22 PM MST
Civil Twilight 5:46 AM MST 6:47 PM MST
Nautical Twilight 5:17 AM MST 7:15 PM MST
Astronomical Twilight 4:49 AM MST 7:43 PM MST
Moon 10:37 PM MST (9/20) 11:57 AM MST (9/20)
Length of Visible Light 13h 00m
Length of Day
12h 12m
Waning Gibbous, 64% of the Moon is Illuminated
Sep 20
Waning Gibbous
Sep 21
Last Quarter
Sep 28
New
Oct 5
First Quarter
Oct 13
Full

Hourly Weather History & Observations

Time (MST) Temp. Dew Point Humidity Pressure Visibility Wind Dir Wind Speed Gust Speed Precip Events Conditions
12:54 AM 63.0 °F 46.9 °F 56% 29.77 in 10.0 mi SSE 5.8 mph - N/A   Clear
1:54 AM 64.0 °F 45.0 °F 50% 29.76 in 10.0 mi Calm Calm - N/A   Clear
2:54 AM 61.0 °F 46.0 °F 58% 29.75 in 10.0 mi Calm Calm - N/A   Clear
3:54 AM 61.0 °F 46.0 °F 58% 29.75 in 10.0 mi Calm Calm - N/A   Clear
4:54 AM 57.9 °F 46.0 °F 65% 29.78 in 10.0 mi Calm Calm - N/A   Clear
5:54 AM 57.0 °F 45.0 °F 64% 29.81 in 10.0 mi ENE 5.8 mph - N/A   Clear
6:54 AM 59.0 °F 46.9 °F 64% 29.83 in 10.0 mi West 3.5 mph - N/A   Clear
7:54 AM 68.0 °F 46.0 °F 45% 29.84 in 10.0 mi Calm Calm - N/A   Clear
8:54 AM 78.1 °F 46.9 °F 33% 29.83 in 10.0 mi South 6.9 mph - N/A   Clear
9:54 AM 82.0 °F 44.1 °F 26% 29.82 in 10.0 mi South 15.0 mph 25.3 mph N/A   Clear
10:54 AM 84.9 °F 46.9 °F 27% 29.81 in 10.0 mi SW 15.0 mph 20.7 mph N/A   Clear
11:54 AM 87.1 °F 48.0 °F 26% 29.80 in 10.0 mi SSW 13.8 mph 20.7 mph N/A   Clear
12:54 PM 87.1 °F 48.9 °F 27% 29.80 in 10.0 mi SW 11.5 mph 25.3 mph N/A   Clear
1:54 PM 87.1 °F 48.0 °F 26% 29.78 in 10.0 mi SW 8.1 mph 25.3 mph N/A   Clear
2:54 PM 88.0 °F 50.0 °F 27% 29.77 in 10.0 mi South 10.4 mph 19.6 mph N/A   Mostly Cloudy
3:54 PM 88.0 °F 48.0 °F 25% 29.76 in 10.0 mi SSW 11.5 mph 16.1 mph N/A   Scattered Clouds
4:54 PM 84.9 °F 51.1 °F 31% 29.76 in 10.0 mi West 11.5 mph 19.6 mph N/A   Mostly Cloudy
5:54 PM 82.9 °F 52.0 °F 34% 29.77 in 10.0 mi SW 8.1 mph - N/A   Scattered Clouds
6:54 PM 79.0 °F 52.0 °F 39% 29.79 in 10.0 mi WSW 10.4 mph - N/A   Partly Cloudy
7:54 PM 75.9 °F 57.9 °F 54% 29.81 in 10.0 mi South 11.5 mph - N/A   Scattered Clouds
8:54 PM 75.0 °F 55.9 °F 51% 29.81 in 10.0 mi SSE 4.6 mph - N/A   Overcast
9:54 PM 73.0 °F 55.9 °F 55% 29.81 in 10.0 mi SSE 3.5 mph - N/A   Scattered Clouds
10:54 PM 72.0 °F 57.0 °F 59% 29.81 in 10.0 mi Calm Calm - N/A   Scattered Clouds
11:54 PM 71.1 °F 57.0 °F 61% 29.82 in 10.0 mi Calm Calm - N/A   Mostly Cloudy